Location: Recife
(8.0585°S, 34.8848°W)
Time: 10:53:34
(UTC-03:00)

Explorer 7 - Pass Details

Date: 16 April 2026
Orbit: 427 x 536 km, 50.2° (Epoch: 14 May)

Event Time Altitude Azimuth Distance (km) Brightness Sun altitude
Rises 01:28:56 0° 312° (NW) 2,452 - -58.0°
Reaches altitude 10° 01:31:09 10° 306° (NW) 1,566 - -57.4°
Maximum altitude 01:34:32 44° 232° (SW) 612 - -56.6°
Drops below altitude 10° 01:37:51 10° 158° (SSE) 1,536 - -55.8°
Sets 01:40:00 0° 151° (SSE) 2,398 - -55.3°
